Wind_Speed
24 20 17 14 11 9 11 15 20 23 29 38 45 52 51 35 5 4 2 3 5 7 7 16 33 30 35 27 16 14 11 6 13 15 17 19 23 24 24 28 27 28 27 28
26 23 17 14 11 9 9 13 17 20 25 33 40 47 50 35 4 7 5 5 5 5 10 13 25 26 25 18 12 10 12 15 15 16 17 18 21 22 23 24 24 25 25 24
31 23 18 13 10 9 8 9 13 17 23 29 37 44 46 37 13 10 8 8 6 7 9 15 17 16 13 15 13 15 15 16 17 16 15 15 16 18 20 24 27 23 25 17
29 25 19 14 10 9 7 8 11 14 20 27 33 39 44 40 19 11 13 10 10 9 9 16 18 19 17 15 11 13 18 16 16 15 13 14 18 22 23 25 20 27 16 21
29 26 21 15 11 9 7 7 9 11 16 22 29 35 40 39 26 5 17 15 12 11 12 14 19 20 23 22 19 18 15 16 15 15 15 15 15 17 20 22 21 27 24 27
25 27 24 18 16 11 5 4 6 8 14 19 26 31 36 39 28 10 12 18 18 15 13 15 15 22 24 21 20 25 23 20 19 20 20 21 21 21 23 26 28 31 33 34
25 30 23 19 14 10 4 6 5 6 11 15 22 28 32 37 32 19 5 16 18 20 17 15 15 16 18 19 19 22 24 25 26 27 28 28 26 27 30 32 33 35 35 34
22 31 25 18 13 9 7 7 4 4 9 13 16 24 28 33 34 21 11 7 18 18 19 20 18 17 18 19 19 19 19 20 21 24 25 27 27 27 28 31 32 30 31 32
27 29 22 18 12 7 7 7 5 2 6 11 13 19 24 29 32 26 15 5 13 20 19 19 20 22 22 21 21 21 22 21 22 22 22 23 24 24 26 28 32 29 30 30
27 25 21 15 13 9 5 6 7 3 3 6 10 12 21 24 29 29 20 5 5 15 23 23 22 21 22 23 24 23 23 24 25 25 26 28 26 26 26 29 31 28 27 27
30 26 19 12 11 9 4 6 7 6 4 6 9 10 15 19 21 26 24 14 6 9 17 23 23 24 23 21 22 22 22 22 23 23 23 24 20 22 24 27 29 28 27 26
32 24 23 13 12 7 8 8 9 9 6 7 7 9 11 15 16 19 24 19 10 4 6 13 24 25 26 24 23 23 23 22 22 23 21 21 23 24 26 26 26 27 27 27
30 25 23 15 11 9 8 9 11 11 9 7 6 8 9 12 15 14 19 20 16 10 6 7 14 25 27 25 24 24 23 23 23 24 24 26 25 25 28 28 29 30 30 30
32 27 20 16 14 9 6 9 11 12 9 8 8 9 9 10 12 12 13 18 16 15 10 8 10 12 19 25 25 25 26 28 27 28 30 30 30 32 31 31 31 30 31 32
31 25 22 19 17 10 7 8 13 13 10 11 10 9 9 10 12 12 10 13 11 14 11 9 9 11 12 16 22 23 28 28 28 30 33 35 37 37 37 35 35 35 33 33
28 26 20 18 17 14 10 10 14 13 11 12 12 10 9 10 10 9 7 9 8 12 13 12 9 8 9 11 16 23 27 26 27 27 28 26 28 31 36 35 35 35 36 34
27 25 22 16 15 15 12 11 12 14 14 14 12 10 9 10 10 9 5 7 7 11 11 12 11 10 11 10 12 14 14 15 16 18 20 23 24 24 29 35 38 34 33 34
22 21 20 19 18 16 15 15 16 15 15 14 12 9 7 9 8 7 6 5 6 9 8 10 13 12 11 12 14 16 17 19 20 22 24 24 27 30 30 31 31 33 38 39
22 18 23 18 17 20 17 16 17 16 17 13 11 9 8 8 8 8 9 8 8 6 9 10 12 15 15 13 12 15 17 21 25 27 28 32 32 31 34 35 35 36 39 41
23 26 23 21 20 20 19 18 18 19 17 14 12 10 9 9 11 11 12 13 13 13 11 15 16 17 17 19 18 18 19 21 21 26 29 29 35 37 35 33 37 40 43 44
25 19 21 22 21 22 22 21 20 20 18 15 13 11 12 13 13 15 18 19 19 20 20 21 22 23 24 24 24 27 30 32 32 32 32 33 37 41 43 42 41 42 47 45
24 25 23 24 24 23 24 22 22 21 19 16 14 14 16 16 17 20 22 23 26 26 26 29 31 31 32 31 33 36 39 40 42 43 42 44 45 47 48 51 54 56 53 52
25 23 23 24 26 24 24 23 22 21 19 17 17 19 20 21 22 25 28 30 32 33 34 37 39 37 37 38 41 43 43 43 45 49 50 52 55 57 59 60 61 60 58 54
26 21 20 23 23 22 23 24 25 24 22 20 21 21 24 25 26 30 34 37 40 40 41 41 40 40 41 43 44 46 46 47 50 53 56 59 63 65 66 69 69 67 63 59
27 20 23 21 22 24 26 28 29 26 25 24 24 25 26 28 30 33 37 41 43 43 42 41 42 42 43 42 44 45 48 51 56 61 64 68 72 75 75 75 72 68 61 57
22 22 22 24 26 27 31 33 33 28 26 24 24 26 27 28 31 34 38 39 40 41 43 44 46 46 46 47 50 53 56 61 65 68 73 76 76 72 69 63 56 47 40 40
26 28 26 28 29 30 34 35 32 27 23 21 22 24 26 30 33 35 36 39 42 44 46 48 49 51 52 55 58 61 65 70 71 72 69 63 60 57 52 44 33 28 28 27
Wind_Direction
259 231 233 250 276 300 324 334 348 359 2 0 4 354 360 1 195 232 117 140 129 120 133 154 171 174 163 166 165 166 173 183 202 206 209 212 215 210 216 222 224 230 237 244
249 236 220 237 267 296 327 332 345 359 4 1 8 358 360 2 246 209 186 157 136 133 151 152 171 185 184 188 203 206 205 201 201 201 201 214 220 218 223 225 228 231 237 247
240 235 209 227 252 299 300 324 342 359 5 3 11 1 360 5 344 208 210 190 169 149 158 158 162 171 191 209 214 208 221 207 221 225 235 219 214 211 214 222 225 240 238 248
236 224 201 220 243 259 284 325 332 2 4 2 9 5 358 2 3 219 217 214 196 182 184 183 194 206 209 214 207 208 212 220 214 220 226 220 221 227 232 236 238 238 245 256
230 218 193 208 237 252 268 321 320 7 2 7 13 8 360 359 9 254 215 219 221 203 199 210 203 197 201 212 210 193 202 221 224 231 231 233 232 233 238 241 244 246 245 257
217 212 195 207 227 237 247 315 316 8 4 7 15 7 1 358 7 359 225 218 224 225 211 202 215 208 208 212 217 217 222 228 233 233 240 243 243 251 250 251 252 253 260 262
223 205 182 195 217 219 242 259 304 10 6 10 19 10 4 0 2 13 309 229 225 230 231 227 213 214 217 220 222 226 235 238 239 246 252 254 255 251 252 251 253 255 258 263
207 185 178 182 193 206 223 250 275 1 6 8 10 10 5 2 359 7 4 250 233 237 233 237 235 232 229 232 234 233 233 237 239 242 245 249 249 250 253 257 256 259 261 264
220 186 178 178 179 181 214 248 252 341 355 3 359 11 8 1 359 5 2 324 244 237 240 238 242 242 242 239 239 242 244 243 244 247 248 253 259 259 261 264 265 265 267 268
202 190 179 188 171 170 210 245 261 273 332 344 355 1 14 13 2 1 8 347 280 243 241 243 244 242 244 244 245 246 249 251 252 252 254 256 261 261 262 260 264 265 265 265
207 198 180 178 177 185 209 236 258 268 294 326 344 347 1 17 10 356 358 15 3 257 246 242 246 247 244 243 241 240 241 243 246 249 251 256 260 261 260 262 262 262 261 261
207 206 192 183 199 205 232 251 246 259 290 305 335 336 340 6 11 356 356 359 21 14 288 257 243 248 248 246 245 246 244 247 247 250 256 260 262 263 262 262 262 262 260 261
207 206 198 196 192 208 227 257 253 251 273 288 308 322 327 349 3 357 352 359 7 8 357 321 267 249 248 252 255 254 256 257 258 261 263 267 271 273 272 268 266 266 265 265
208 207 201 198 200 207 237 261 250 251 267 289 290 311 314 333 353 355 348 354 7 9 351 316 320 301 265 259 257 259 260 262 266 269 273 275 279 279 280 279 275 271 269 268
209 208 201 198 202 213 245 253 255 254 255 271 276 297 309 317 345 357 347 349 1 8 4 340 315 304 302 282 272 267 260 263 268 269 269 270 272 276 280 282 281 276 272 274
210 198 180 192 202 213 228 246 249 253 261 267 273 285 298 313 335 358 354 2 352 9 14 6 348 336 327 306 289 273 273 273 273 277 279 276 276 273 269 271 276 277 277 274
194 201 200 192 199 194 212 234 245 247 255 260 264 275 295 307 326 350 338 357 12 16 19 19 4 346 333 325 313 307 304 296 287 284 290 291 285 280 272 267 262 261 269 275
204 209 199 194 188 197 207 227 239 247 250 255 263 271 284 303 321 346 6 352 357 17 10 9 0 345 329 314 307 301 302 301 295 289 285 282 284 286 284 280 277 274 269 268
204 218 203 203 213 201 210 225 235 241 245 252 263 268 281 293 319 343 348 358 1 344 357 349 346 342 341 329 316 305 300 295 293 292 297 297 294 292 292 290 288 285 279 276
215 211 212 212 205 207 209 222 232 239 245 249 260 269 280 299 317 332 347 348 346 347 330 329 337 327 315 317 306 302 297 294 291 298 298 296 300 298 297 296 295 289 284 280
213 203 201 199 205 207 209 218 228 235 241 252 263 279 296 310 326 336 338 339 336 336 328 323 321 316 311 300 294 285 285 287 288 288 283 286 287 284 285 285 283 285 289 287
199 195 194 193 204 212 214 216 226 235 245 252 266 283 294 305 317 322 324 324 323 322 319 317 317 308 301 293 285 282 280 280 282 283 283 284 282 281 283 281 280 282 280 285
191 191 189 195 217 220 222 222 229 236 244 254 267 279 287 298 308 313 314 316 315 316 313 311 311 306 301 293 284 283 281 281 283 284 285 284 281 280 279 278 279 280 280 281
191 207 206 208 223 227 224 226 227 237 246 255 266 277 285 295 304 308 311 311 312 311 309 309 311 309 304 299 295 292 292 290 288 288 287 286 285 284 282 281 279 278 278 275
204 214 216 224 230 229 227 226 230 238 247 257 266 274 284 293 301 305 308 307 311 311 313 313 312 310 307 303 299 295 291 291 289 290 291 290 290 290 290 288 286 283 278 272
213 223 226 233 232 233 233 234 237 242 251 264 274 279 290 296 300 305 306 308 309 310 311 312 311 311 309 306 303 300 298 294 294 295 295 296 296 296 294 293 291 287 277 263
216 216 224 231 237 243 242 244 247 260 264 267 277 290 297 300 301 305 308 309 310 312 312 312 313 312 311 308 305 302 300 299 300 299 301 302 301 300 298 297 291 276 256 243
Height
5680 5682 5684 5685 5683 5681 5678 5675 5671 5666 5661 5655 5644 5632 5623 5614 5614 5616 5616 5614 5613 5614 5613 5615 5618 5621 5626 5629 5631 5633 5636 5639 5641 5645 5648 5651 5653 5656 5660 5663 5668 5670 5673 5678
5672 5675 5677 5679 5678 5676 5673 5671 5667 5664 5659 5654 5645 5634 5626 5617 5613 5615 5616 5616 5615 5616 5617 5619 5620 5623 5626 5630 5632 5635 5637 5638 5642 5645 5648 5649 5652 5655 5659 5661 5663 5667 5670 5673
5664 5668 5671 5673 5672 5671 5670 5667 5665 5662 5657 5652 5645 5635 5626 5617 5613 5615 5616 5617 5617 5617 5619 5621 5624 5626 5628 5630 5631 5633 5636 5639 5641 5644 5645 5647 5650 5652 5654 5655 5658 5663 5665 5669
5657 5661 5664 5666 5667 5666 5665 5662 5661 5658 5656 5650 5644 5635 5626 5618 5614 5614 5615 5617 5618 5620 5620 5621 5624 5626 5628 5630 5631 5633 5635 5637 5639 5641 5643 5645 5647 5650 5651 5652 5657 5657 5662 5662
5649 5654 5656 5659 5661 5660 5660 5658 5657 5655 5653 5649 5643 5635 5628 5620 5615 5612 5614 5617 5618 5619 5622 5623 5623 5625 5628 5630 5632 5634 5635 5637 5637 5639 5641 5643 5645 5647 5648 5649 5652 5652 5656 5657
5641 5647 5651 5653 5655 5656 5655 5654 5654 5652 5650 5646 5642 5636 5629 5621 5616 5612 5612 5615 5617 5618 5619 5622 5623 5625 5626 5628 5630 5632 5633 5635 5636 5637 5639 5641 5644 5644 5645 5646 5647 5648 5648 5651
5635 5640 5644 5647 5649 5650 5650 5650 5649 5648 5647 5644 5641 5635 5629 5622 5615 5612 5610 5612 5614 5616 5619 5620 5621 5624 5625 5625 5626 5628 5630 5631 5633 5634 5635 5636 5638 5639 5640 5641 5642 5643 5643 5643
5629 5633 5637 5641 5644 5645 5646 5645 5645 5644 5643 5642 5639 5634 5627 5622 5616 5613 5608 5609 5612 5614 5615 5617 5619 5620 5621 5623 5624 5625 5626 5627 5629 5630 5631 5632 5633 5634 5635 5635 5637 5636 5637 5637
5623 5629 5632 5636 5638 5640 5641 5641 5641 5640 5640 5639 5636 5633 5628 5622 5617 5612 5610 5607 5608 5610 5613 5614 5615 5618 5619 5620 5621 5623 5624 5624 5625 5626 5626 5626 5626 5628 5628 5628 5627 5629 5630 5630
5618 5624 5627 5632 5633 5635 5636 5637 5637 5637 5637 5636 5634 5631 5627 5622 5617 5612 5609 5607 5605 5606 5608 5610 5612 5613 5613 5614 5615 5617 5617 5618 5619 5619 5620 5620 5622 5622 5622 5622 5624 5623 5623 5623
5613 5619 5622 5627 5628 5630 5632 5633 5633 5633 5632 5633 5631 5629 5626 5622 5617 5612 5609 5606 5604 5603 5603 5605 5607 5608 5607 5609 5609 5609 5612 5613 5614 5615 5615 5616 5617 5617 5617 5617 5616 5616 5616 5615
5607 5613 5617 5621 5624 5626 5627 5628 5628 5629 5629 5630 5629 5627 5624 5621 5617 5613 5608 5605 5602 5601 5600 5600 5601 5601 5602 5603 5605 5607 5609 5609 5610 5611 5612 5611 5611 5610 5610 5609 5609 5608 5608 5607
5601 5607 5612 5616 5619 5621 5622 5624 5624 5626 5625 5626 5625 5623 5622 5619 5616 5612 5610 5605 5601 5600 5599 5597 5597 5596 5597 5600 5603 5604 5605 5605 5605 5605 5605 5604 5603 5602 5601 5601 5601 5600 5600 5599
5595 5601 5606 5610 5614 5617 5618 5619 5620 5621 5622 5622 5622 5621 5619 5617 5615 5612 5608 5605 5600 5597 5597 5595 5593 5593 5594 5595 5597 5598 5599 5598 5598 5598 5597 5596 5595 5593 5592 5592 5591 5591 5591 5590
5589 5595 5600 5605 5609 5612 5614 5614 5616 5617 5620 5619 5619 5618 5616 5615 5613 5611 5608 5605 5601 5597 5595 5593 5591 5589 5589 5589 5590 5591 5587 5587 5588 5587 5586 5585 5584 5583 5582 5582 5581 5580 5580 5580
5583 5590 5594 5599 5603 5607 5609 5610 5613 5613 5615 5616 5615 5614 5613 5611 5610 5608 5606 5604 5601 5597 5594 5591 5588 5587 5586 5585 5584 5583 5583 5581 5580 5580 5578 5575 5573 5572 5571 5571 5570 5570 5569 5569
5579 5584 5589 5594 5598 5602 5604 5608 5610 5610 5611 5612 5612 5611 5610 5608 5606 5605 5603 5602 5600 5596 5593 5590 5587 5585 5584 5582 5581 5580 5578 5577 5574 5573 5572 5570 5568 5566 5564 5563 5561 5560 5560 5559
5574 5579 5584 5589 5592 5597 5600 5603 5605 5606 5608 5608 5608 5608 5607 5606 5604 5604 5602 5601 5598 5596 5592 5590 5587 5584 5581 5578 5577 5575 5574 5573 5570 5567 5563 5561 5561 5560 5558 5556 5554 5552 5551 5549
5569 5575 5581 5585 5589 5592 5596 5598 5601 5603 5606 5604 5604 5604 5604 5603 5602 5601 5601 5599 5596 5594 5592 5589 5587 5584 5581 5578 5575 5573 5570 5567 5564 5560 5557 5553 5549 5546 5545 5545 5543 5541 5539 5537
5566 5571 5576 5579 5583 5587 5592 5593 5597 5598 5600 5600 5601 5601 5601 5602 5599 5597 5598 5595 5593 5591 5590 5587 5585 5583 5580 5577 5573 5570 5565 5561 5558 5556 5552 5548 5543 5539 5535 5531 5529 5527 5524 5522
5562 5567 5571 5575 5579 5583 5587 5589 5593 5594 5596 5598 5598 5598 5597 5596 5595 5593 5592 5591 5588 5587 5585 5582 5580 5578 5575 5571 5568 5563 5559 5554 5550 5546 5543 5540 5536 5532 5528 5523 5518 5515 5511 5507
5558 5563 5567 5571 5575 5579 5582 5585 5588 5591 5593 5593 5594 5594 5593 5592 5591 5589 5588 5587 5584 5581 5579 5576 5573 5570 5565 5561 5557 5553 5548 5543 5539 5535 5531 5526 5522 5518 5513 5509 5503 5499 5496 5492
5552 5558 5561 5566 5570 5573 5577 5581 5585 5587 5588 5588 5589 5589 5588 5587 5587 5585 5582 5580 5578 5575 5572 5568 5565 5559 5555 5550 5543 5539 5534 5531 5526 5520 5515 5510 5504 5499 5494 5490 5484 5481 5478 5476
5549 5554 5557 5561 5565 5570 5574 5578 5580 5582 5582 5583 5583 5583 5582 5581 5580 5578 5575 5571 5569 5565 5563 5558 5553 5548 5542 5536 5531 5526 5521 5515 5509 5503 5497 5490 5483 5477 5471 5465 5461 5458 5457 5457
5544 5549 5553 5558 5563 5566 5569 5572 5574 5576 5577 5578 5578 5577 5576 5575 5574 5572 5567 5562 5559 5554 5551 5547 5541 5535 5529 5523 5517 5512 5506 5500 5492 5485 5478 5469 5460 5453 5446 5437 5432 5430 5431 5434
5540 5544 5550 5555 5558 5561 5564 5565 5567 5569 5571 5572 5572 5570 5570 5569 5567 5564 5559 5555 5551 5546 5540 5535 5528 5522 5515 5509 5503 5496 5489 5480 5472 5465 5455 5445 5435 5425 5417 5410 5405 5405 5407 5411
5535 5542 5547 5549 5552 5555 5557 5559 5561 5565 5566 5567 5565 5565 5564 5561 5558 5555 5551 5546 5541 5535 5529 5522 5515 5508 5501 5493 5486 5479 5470 5460 5450 5440 5429 5420 5412 5403 5396 5393 5390 5391 5393 5397